1508349600.1,41720,16.88,74074.5,3.01,-19.13,-20.39,0,*7D
1508349601.34,41721,16.88,74080.5,3.01,-19.13,-20.49,0,*7B
1508349602.58,41722,16.88,74078.3,3.01,-19.13,-20.49,0,*78
1508349603.83,41723,16.88,74082.3,3.01,-18.93,-20.35,0,*7B
1508349605.07,41724,16.88,74082.8,3.01,-19.07,-20.49,0,*7B
1508349606.31,41725,16.88,74090.5,3.01,-19.13,-20.49,0,*7F
1508349607.55,41726,16.88,74086.8,3.01,-19.13,-20.49,0,*7C
1508349608.78,41727,16.88,74086.5,3.05,-18.83,-20.19,0,*74
1508349610.03,41728,16.88,74084.3,2.97,-18.83,-20.35,0,*7F
1508349611.29,41729,16.88,74084.8,3.05,-18.89,-20.19,0,*70
1508349612.49,41730,16.88,74090.0,3.05,-18.73,-20.09,0,*7C
1508349613.72,41731,16.88,74080.0,3.05,-18.69,-20.19,0,*77
1508349614.93,41732,16.88,74076.0,3.05,-18.83,-20.09,0,*71
1508349616.14,41733,16.88,74086.5,3.05,-18.73,-20.05,0,*73
1508349617.37,41734,16.88,74092.8,3.05,-18.89,-20.39,0,*7E
1508349618.58,41735,16.88,74098.0,3.05,-19.13,-20.43,0,*70
1508349619.8,41736,16.88,74104.5,3.05,-19.17,-20.59,0,*7C
1508349621.02,41737,16.88,74112.8,3.05,-19.13,-20.59,0,*79
1508349622.24,41738,16.88,74102.0,3.05,-19.13,-20.43,0,*7D
1508349623.44,41739,16.88,74094.3,3.01,-18.79,-20.05,0,*77
1508349624.67,41740,16.88,74092.0,3.07,-18.83,-20.25,0,*78
1508349625.88,41741,16.88,74090.3,3.05,-18.83,-20.25,0,*7B
1508349627.11,41742,16.88,74084.8,3.07,-18.83,-20.25,0,*7A
1508349628.33,41743,16.88,74092.3,3.05,-19.03,-20.39,0,*7D
1508349629.58,41744,16.88,74098.5,3.07,-19.03,-20.53,0,*74
1508349630.82,41745,16.88,74094.5,3.07,-19.13,-20.43,0,*75
1508349632.03,41746,16.88,74094.5,3.05,-19.03,-20.43,0,*75
1508349633.24,41747,16.88,74094.8,3.05,-19.03,-20.43,0,*74
1508349634.47,41748,16.88,74094.0,3.05,-18.89,-20.43,0,*78
1508349635.68,41749,16.88,74090.8,3.05,-18.99,-20.43,0,*78
1508349636.9,41750,16.88,74092.5,3.05,-18.89,-20.29,0,*7D
1508349638.16,41751,16.88,74098.5,3.07,-18.89,-20.39,0,*7F
1508349639.37,41752,16.88,74100.5,3.05,-18.83,-20.25,0,*79
1508349640.58,41753,16.88,74090.0,3.05,-18.73,-20.25,0,*77
1508349641.81,41754,16.88,74090.5,3.05,-18.89,-20.39,0,*78
1508349643.02,41755,16.88,74096.0,3.05,-18.83,-20.39,0,*73
1508349644.27,41756,16.88,74098.3,3.07,-18.89,-20.29,0,*79
1508349645.48,41757,16.88,74100.3,3.05,-18.73,-20.29,0,*7F
1508349646.69,41758,16.88,74106.8,3.05,-18.73,-20.39,0,*71
1508349647.9,41759,16.88,74120.3,3.05,-18.99,-20.39,0,*74
1508349649.16,41760,16.88,74116.5,3.07,-18.99,-20.53,0,*70
1508349650.4,41761,16.88,74112.5,3.05,-18.99,-20.53,0,*73
1508349651.62,41762,16.88,74100.8,3.05,-18.55,-20.05,0,*73
1508349652.83,41763,16.88,74098.8,3.05,-18.69,-20.29,0,*73
1508349654.04,41764,16.88,74102.3,3.05,-18.73,-20.29,0,*7F
1508349655.24,41765,16.88,74086.0,3.05,-18.73,-20.29,0,*7E
1508349656.46,41766,16.88,74102.0,3.05,-18.69,-20.39,0,*77
1508349657.67,41767,16.88,74118.5,3.05,-18.83,-20.39,0,*72
1508349658.9,41768,16.88,74108.3,3.05,-18.89,-20.43,0,*7A
1508349660.11,41769,16.88,74096.8,3.05,-18.69,-20.39,0,*78
1508349661.34,41770,16.88,74090.3,3.07,-18.69,-19.91,0,*7A
1508349662.58,41771,16.88,74084.5,3.05,-18.31,-19.91,0,*74
1508349663.78,41772,16.88,74090.8,3.05,-18.45,-20.09,0,*7F
1508349665.01,41773,16.88,74096.0,3.05,-18.59,-20.25,0,*7D
1508349666.27,41774,16.88,74088.3,3.07,-18.45,-20.19,0,*7A
1508349667.52,41775,16.88,74092.8,3.07,-18.59,-20.25,0,*79
1508349668.75,41776,16.88,74102.8,3.07,-18.69,-20.29,0,*75
1508349669.99,41777,16.88,74100.8,3.07,-18.69,-20.29,0,*74
1508349671.22,41778,16.88,74098.8,3.07,-18.73,-20.43,0,*7C
1508349672.43,41779,16.88,74106.3,3.05,-18.83,-20.43,0,*70
1508349673.64,41780,16.88,74104.3,3.05,-18.83,-20.43,0,*76
1508349674.87,41781,16.88,74102.5,3.05,-18.83,-20.53,0,*76
1508349676.11,41782,16.88,74096.3,3.07,-18.83,-20.43,0,*76
1508349677.34,41783,16.88,74090.5,3.07,-18.83,-20.43,0,*77
1508349678.55,41784,16.88,74106.5,3.05,-18.83,-20.43,0,*72
1508349679.79,41785,16.88,74094.0,3.07,-18.69,-20.43,0,*75
1508349681.04,41786,16.88,74078.5,3.07,-18.41,-20.19,0,*73
1508349682.28,41787,16.88,74090.8,3.07,-18.69,-20.39,0,*7A
1508349683.54,41788,16.88,74096.5,3.07,-18.73,-20.53,0,*72
1508349684.75,41789,16.88,74096.5,3.05,-18.83,-20.59,0,*74
1508349685.98,41790,16.88,74100.8,3.05,-18.89,-20.59,0,*76
1508349687.19,41791,16.88,74098.3,3.05,-18.83,-20.43,0,*76
1508349688.41,41792,16.88,74094.3,3.05,-18.69,-20.39,0,*7C
1508349689.62,41793,16.88,74090.8,3.05,-18.69,-20.39,0,*7D
1508349690.87,41794,16.88,74076.5,3.05,-18.55,-19.81,0,*7C
1508349692.07,41795,16.88,74082.5,3.05,-18.25,-20.05,0,*7C
1508349693.3,41796,16.88,74082.3,3.07,-18.45,-20.05,0,*7B
1508349694.53,41797,16.88,74092.0,3.07,-18.45,-20.25,0,*78
1508349695.75,41798,16.88,74094.0,3.09,-18.21,-19.85,0,*7B
1508349696.98,41799,16.88,74086.3,3.09,-18.07,-19.61,0,*74
1508349698.23,41800,16.88,74080.5,3.11,-18.07,-19.85,0,*78
1508349699.43,41801,16.88,74078.5,3.13,-18.11,-19.95,0,*7D
1508349700.68,41802,16.88,74080.0,3.09,-18.35,-20.19,0,*7D
1508349701.92,41803,16.88,74078.5,3.11,-18.25,-20.15,0,*78
1508349703.17,41804,16.88,74064.5,3.11,-18.41,-20.35,0,*7F
1508349704.4,41805,16.88,74068.8,3.11,-18.65,-20.39,0,*74
1508349705.61,41806,16.88,74074.5,3.09,-18.65,-20.39,0,*7E
1508349706.84,41807,16.88,74066.5,3.11,-18.69,-20.39,0,*7A
1508349708.06,41808,16.88,74066.5,3.09,-18.65,-20.35,0,*7C
1508349709.32,41809,16.88,74098.0,3.11,-18.65,-20.49,0,*7F
1508349710.58,41810,16.81,74098.8,3.11,-18.69,-20.49,0,*7B
1508349711.81,41811,16.88,74090.5,3.09,-18.79,-20.53,0,*79
1508349713.04,41812,16.88,74080.5,3.11,-19.07,-20.39,0,*77
1508349714.24,41813,16.88,74070.0,3.09,-18.65,-20.39,0,*7A
1508349715.48,41814,16.88,74078.3,3.09,-18.69,-20.49,0,*76
1508349716.71,41815,16.88,74086.3,3.11,-18.69,-20.39,0,*79
1508349717.96,41816,16.88,74088.5,3.11,-18.65,-20.49,0,*71
1508349719.17,41817,16.88,74086.3,3.09,-18.65,-20.39,0,*7E
1508349720.4,41818,16.88,74084.8,3.11,-18.79,-20.39,0,*75
1508349721.63,41819,16.88,74088.8,3.09,-18.79,-20.53,0,*71
1508349722.84,41820,16.88,74088.8,3.09,-18.69,-20.63,0,*79
1508349724.04,41821,16.88,74094.0,3.09,-18.79,-20.63,0,*79
1508349725.3,41822,16.88,74098.0,3.11,-18.93,-20.63,0,*77
1508349726.55,41823,16.88,74094.3,3.11,-18.93,-20.63,0,*76
1508349727.75,41824,16.88,74094.8,3.09,-18.83,-20.69,0,*73
1508349729.02,41825,16.88,74100.3,3.11,-18.93,-20.79,0,*7B
1508349730.25,41826,16.88,74100.5,3.09,-18.99,-20.79,0,*7B
1508349731.45,41827,16.88,74104.3,3.09,-19.07,-20.93,0,*78
1508349732.71,41828,16.88,74100.5,3.07,-19.13,-20.99,0,*76
1508349733.95,41829,16.88,74098.8,3.07,-18.99,-20.89,0,*75
1508349735.2,41830,16.88,74096.3,3.07,-18.99,-20.99,0,*7C
1508349736.46,41831,16.81,74090.0,3.07,-19.03,-20.83,0,*74
1508349737.71,41832,16.88,74088.3,3.07,-19.03,-20.83,0,*77
1508349738.92,41833,16.88,74086.5,3.05,-19.03,-20.89,0,*7E
1508349740.13,41834,16.88,74102.3,3.05,-19.03,-20.89,0,*79
1508349741.38,41835,16.88,74092.0,3.07,-19.03,-20.83,0,*70
1508349742.64,41836,16.88,74094.3,3.07,-18.89,-20.73,0,*7F
1508349743.84,41837,16.81,74090.5,3.05,-18.83,-20.73,0,*76
1508349745.08,41838,16.88,74078.3,3.07,-18.83,-20.59,0,*73
1508349746.28,41839,16.88,74082.5,3.05,-18.73,-20.69,0,*7C
1508349747.51,41840,16.88,74080.3,3.07,-18.83,-20.69,0,*7F
1508349748.74,41841,16.88,74094.0,3.05,-18.89,-20.73,0,*7D
1508349749.97,41842,16.88,74090.3,3.05,-18.89,-20.73,0,*7E
1508349751.22,41843,16.88,74080.3,3.05,-18.89,-20.83,0,*70
1508349752.47,41844,16.88,74102.3,3.07,-18.99,-20.83,0,*74
1508349753.71,41845,16.88,74102.0,3.05,-18.89,-20.89,0,*7C
1508349754.92,41846,16.81,74080.5,3.05,-18.83,-20.73,0,*70
1508349756.12,41847,16.88,74076.0,3.05,-18.73,-20.69,0,*75
1508349757.33,41848,16.81,74076.0,3.05,-18.83,-20.73,0,*7E
1508349758.53,41849,16.88,74084.5,3.05,-18.83,-20.69,0,*74
1508349759.74,41850,16.88,74086.3,3.05,-18.83,-20.69,0,*7C
1508349761.0,41851,16.81,74086.8,3.05,-18.59,-20.53,0,*73
1508349762.2,41852,16.88,74090.3,3.05,-18.73,-20.69,0,*71
1508349763.43,41853,16.81,74078.5,3.05,-18.73,-20.53,0,*79
1508349764.67,41854,16.88,74074.5,3.05,-18.69,-20.53,0,*75
1508349765.87,41855,16.88,74080.3,3.05,-18.73,-20.69,0,*76
1508349767.08,41856,16.88,74090.3,3.05,-18.73,-20.69,0,*75
1508349768.31,41857,16.88,74090.8,3.05,-18.73,-20.53,0,*7D
1508349769.54,41858,16.88,74084.8,3.01,-18.79,-20.79,0,*74
1508349770.77,41859,16.88,74084.0,3.05,-18.99,-20.83,0,*7A
1508349771.98,41860,16.88,74082.5,3.05,-18.99,-20.89,0,*7A
1508349773.26,41861,16.81,74074.5,3.07,-18.89,-20.83,0,*72
1508349774.49,41862,16.88,74088.5,3.05,-18.99,-20.83,0,*72
1508349775.7,41863,16.81,74108.3,3.05,-19.03,-20.89,0,*7B
1508349776.93,41864,16.88,74096.8,3.01,-18.99,-20.79,0,*75
1508349778.14,41865,16.81,74086.3,3.05,-18.65,-20.39,0,*77
1508349779.35,41866,16.88,74058.0,3.05,-18.73,-20.43,0,*7E
1508349780.58,41867,16.88,74064.5,3.01,-18.69,-20.53,0,*71
1508349781.84,41868,16.81,74078.3,3.05,-18.59,-20.53,0,*79
1508349783.05,41869,16.88,74076.8,3.05,-18.83,-20.59,0,*75
1508349784.25,41870,16.81,74084.3,3.05,-18.83,-20.69,0,*7E
1508349785.46,41871,16.88,74086.3,3.05,-18.73,-20.69,0,*70
1508349786.69,41872,16.88,74082.8,3.05,-18.89,-20.59,0,*75
1508349787.89,41873,16.88,74082.8,3.05,-18.83,-20.69,0,*7D
1508349789.13,41874,16.88,74086.3,3.07,-18.73,-20.59,0,*74
1508349790.36,41875,16.81,74082.5,3.07,-18.83,-20.59,0,*7A
1508349791.57,41876,16.88,74080.8,3.05,-18.73,-20.69,0,*77
1508349792.79,41877,16.81,74080.3,3.05,-18.89,-20.69,0,*73
1508349794.02,41878,16.88,74086.5,3.05,-18.89,-20.73,0,*77
1508349795.25,41879,16.81,74080.8,3.05,-18.99,-20.83,0,*78
1508349796.5,41880,16.81,74086.0,3.05,-18.89,-20.83,0,*7F
1508349797.75,41881,16.88,74082.3,3.01,-18.89,-20.83,0,*7A
1508349798.98,41882,16.81,74076.8,3.05,-18.89,-20.59,0,*7A
1508349800.2,41883,16.88,74080.0,3.05,-18.89,-20.69,0,*78
1508349801.42,41884,16.88,74082.5,3.05,-18.83,-20.59,0,*76
1508349802.63,41885,16.81,74080.8,3.05,-18.73,-20.59,0,*78
1508349803.84,41886,16.88,74082.0,3.05,-18.83,-20.59,0,*74
1508349805.07,41887,16.81,74082.3,3.05,-18.83,-20.53,0,*7F
1508349806.3,41888,16.81,74078.5,3.01,-18.99,-20.83,0,*72
1508349807.51,41889,16.81,74080.5,3.05,-18.99,-20.73,0,*78
1508349808.74,41890,16.81,74082.8,3.05,-18.83,-20.53,0,*79
1508349809.98,41891,16.81,74084.0,3.05,-18.73,-20.53,0,*77
1508349811.2,41892,16.81,74086.5,3.01,-19.07,-20.79,0,*7A
1508349812.43,41893,16.88,74090.3,3.07,-18.99,-20.73,0,*71
1508349813.66,41894,16.81,74088.8,3.05,-18.99,-20.83,0,*7B
1508349814.89,41895,16.88,74090.3,3.01,-19.07,-20.79,0,*7D
1508349816.12,41896,16.81,74088.8,3.01,-18.93,-20.69,0,*73
1508349817.32,41897,16.81,74090.0,3.01,-18.99,-20.69,0,*78
1508349818.57,41898,16.81,74088.5,3.01,-18.93,-20.79,0,*7C
1508349819.8,41899,16.81,74086.8,3.01,-19.07,-20.79,0,*71
1508349821.08,41900,16.81,74072.8,2.97,-19.23,-20.99,0,*76
1508349822.31,41901,16.81,74074.5,3.01,-19.13,-20.83,0,*71
1508349823.55,41902,16.88,74086.3,3.01,-19.13,-20.83,0,*72
1508349824.8,41903,16.81,74082.8,3.07,-18.89,-20.73,0,*78
1508349826.04,41904,16.81,74086.5,3.01,-19.13,-20.83,0,*74
1508349827.26,41905,16.81,74090.3,3.05,-19.03,-20.83,0,*70
1508349828.47,41906,16.81,74090.3,3.05,-19.03,-20.73,0,*7C
1508349829.76,41907,16.81,74088.5,2.97,-19.23,-20.99,0,*71
1508349830.99,41908,16.81,74088.5,3.01,-19.13,-20.83,0,*78
1508349832.22,41909,16.81,74092.0,3.01,-19.13,-20.83,0,*79
1508349833.44,41910,16.81,74092.3,3.01,-19.13,-20.93,0,*70
1508349834.68,41911,16.88,74094.3,2.97,-19.13,-20.93,0,*7F
1508349835.93,41912,16.81,74090.8,2.97,-19.23,-21.09,0,*7D
1508349837.19,41913,16.81,74092.3,2.97,-19.31,-21.13,0,*74
1508349838.45,41914,16.81,74088.3,2.97,-19.27,-21.13,0,*74
1508349839.7,41915,16.81,74088.8,3.01,-19.23,-20.99,0,*7C
1508349840.94,41916,16.88,74088.0,2.97,-19.13,-20.93,0,*78
1508349842.2,41917,16.81,74090.8,2.97,-19.23,-21.09,0,*78
1508349843.45,41918,16.81,74092.8,2.97,-19.31,-21.13,0,*7F
1508349844.68,41919,16.81,74094.8,3.01,-19.31,-21.13,0,*70
1508349845.95,41920,16.81,74094.0,3.01,-19.31,-21.23,0,*79
1508349847.24,41921,16.81,74098.0,2.97,-19.31,-21.23,0,*76
1508349848.47,41922,16.81,74100.0,3.01,-19.31,-21.13,0,*78
1508349849.76,41923,16.88,74106.3,2.97,-19.31,-21.23,0,*74
1508349851.04,41924,16.88,74104.0,2.97,-19.41,-21.23,0,*74
1508349852.3,41925,16.81,74092.5,2.97,-19.27,-21.09,0,*7D
1508349853.56,41926,16.81,74094.0,2.97,-19.23,-21.09,0,*7A
1508349854.82,41927,16.81,74092.8,2.93,-19.27,-21.17,0,*74
1508349856.08,41928,16.81,74092.5,2.93,-19.27,-21.13,0,*7F
1508349857.33,41929,16.81,74088.0,2.95,-19.31,-21.27,0,*78
1508349858.59,41930,16.81,74092.3,2.95,-19.31,-21.27,0,*70
1508349859.84,41931,16.81,74096.8,2.93,-19.37,-21.33,0,*74
1508349861.04,41932,16.81,74092.0,2.95,-19.51,-21.47,0,*72
1508349862.32,41933,16.81,74086.8,2.93,-19.31,-21.27,0,*75
1508349863.56,41934,16.81,74084.8,2.95,-19.27,-21.13,0,*74
1508349864.79,41935,16.81,74084.8,2.93,-19.37,-21.17,0,*76
1508349866.08,41936,16.81,74084.0,2.97,-19.27,-21.23,0,*77
1508349867.32,41937,16.81,74084.5,2.95,-19.37,-21.27,0,*71
1508349868.52,41938,16.81,74084.0,2.95,-19.17,-21.17,0,*7F
1508349869.81,41939,16.81,74080.3,2.93,-19.27,-21.03,0,*7E
1508349871.06,41940,16.81,74086.3,2.93,-19.27,-21.13,0,*71
1508349872.3,41941,16.81,74086.8,2.95,-19.27,-21.13,0,*76
1508349873.56,41942,16.81,74088.8,2.93,-19.27,-21.17,0,*77
1508349874.8,41943,16.81,74090.0,2.95,-19.27,-21.17,0,*70
1508349876.06,41944,16.81,74094.3,2.93,-19.27,-21.17,0,*71
1508349877.31,41945,16.81,74092.8,2.95,-19.31,-21.27,0,*72
1508349878.57,41946,16.81,74090.5,2.93,-19.31,-21.17,0,*74
1508349879.8,41947,16.81,74092.5,2.95,-19.31,-21.17,0,*73
1508349881.03,41948,16.81,74088.8,2.95,-19.31,-21.17,0,*7C
1508349882.28,41949,16.81,74094.5,2.93,-19.51,-21.33,0,*7B
1508349883.5,41950,16.81,74096.0,2.93,-19.51,-21.47,0,*70
1508349884.73,41951,16.81,74102.5,2.93,-19.51,-21.47,0,*71
1508349885.98,41952,16.81,74096.8,2.93,-19.65,-21.63,0,*73
1508349887.26,41953,16.81,74092.0,2.93,-19.61,-21.53,0,*75
1508349888.51,41954,16.81,74090.3,2.91,-19.57,-21.57,0,*71
1508349889.76,41955,16.81,74088.5,2.93,-19.37,-21.33,0,*76
1508349890.99,41956,16.81,74088.0,2.91,-19.51,-21.53,0,*71
1508349892.2,41957,16.81,74086.5,2.91,-19.37,-21.39,0,*7C
1508349893.43,41958,16.81,74086.8,2.91,-19.51,-21.53,0,*7F
1508349894.65,41959,16.81,74096.8,2.91,-19.71,-21.57,0,*78
1508349895.91,41960,16.81,74098.0,2.91,-19.57,-21.57,0,*76
1508349897.17,41961,16.81,74096.8,2.91,-19.57,-21.67,0,*74
1508349898.4,41962,16.81,74098.3,2.91,-19.51,-21.67,0,*71
1508349899.63,41963,16.81,74098.8,2.91,-19.71,-21.57,0,*71
1508349900.83,41964,16.81,74104.3,2.91,-19.71,-21.73,0,*70
1508349902.08,41965,16.81,74108.3,2.93,-19.75,-21.67,0,*72
1508349903.3,41966,16.81,74104.0,2.89,-19.71,-21.73,0,*7B
1508349904.57,41967,16.81,74106.8,2.91,-19.27,-21.23,0,*75
1508349905.78,41968,16.81,74098.5,2.91,-19.37,-21.39,0,*70
1508349907.04,41969,16.81,74090.8,2.91,-19.23,-21.33,0,*7E
1508349908.29,41970,16.81,74092.5,2.91,-19.31,-21.53,0,*73
1508349909.55,41971,16.81,74092.8,2.91,-19.23,-21.33,0,*77
1508349910.79,41972,16.81,74098.0,2.91,-18.93,-20.89,0,*7E
1508349912.03,41973,16.81,74094.3,2.93,-18.89,-20.69,0,*78
1508349913.29,41974,16.81,74092.3,2.93,-18.59,-20.59,0,*71
1508349914.51,41975,16.81,74086.0,2.95,-18.89,-20.73,0,*73
1508349915.76,41976,16.81,74086.3,2.93,-18.89,-20.59,0,*7E
1508349916.99,41977,16.81,74092.5,2.93,-18.41,-20.39,0,*7D
1508349918.22,41978,16.81,74072.3,2.95,-18.35,-20.09,0,*74
1508349919.5,41979,16.81,74070.5,2.97,-18.31,-20.35,0,*7C
1508349920.73,41980,16.81,74064.3,2.97,-18.69,-20.69,0,*7E
1508349921.94,41981,16.81,74066.0,3.05,-18.69,-20.69,0,*75
1508349923.17,41982,16.81,74062.5,3.05,-18.83,-20.83,0,*76
1508349924.42,41983,16.81,74060.8,3.01,-18.93,-20.99,0,*79
1508349925.63,41984,16.81,74060.3,3.01,-19.07,-21.13,0,*71
1508349926.86,41985,16.81,74066.8,3.05,-19.13,-21.33,0,*73
1508349928.12,41986,16.81,74066.5,3.05,-19.31,-21.33,0,*70
1508349929.35,41987,16.81,74064.0,3.05,-19.23,-21.39,0,*78
1508349930.6,41988,16.81,74068.0,3.01,-19.41,-21.57,0,*7F
1508349931.8,41989,16.81,74074.3,3.05,-19.47,-21.63,0,*7B
1508349932.99,41990,16.81,74076.8,3.01,-19.47,-21.73,0,*76
1508349934.25,41991,16.81,74078.5,3.01,-19.61,-21.87,0,*78
1508349935.45,41992,16.81,74080.5,3.01,-19.75,-21.93,0,*7B
1508349936.65,41993,16.81,74074.3,3.01,-19.75,-21.93,0,*7A
1508349937.88,41994,16.81,74078.0,2.97,-19.75,-21.93,0,*73
1508349939.1,41995,16.81,74078.3,3.01,-19.85,-22.03,0,*79
1508349940.33,41996,16.81,74078.0,3.01,-19.91,-22.17,0,*7A
1508349941.56,41997,16.81,74078.8,2.97,-19.91,-22.07,0,*74
1508349942.79,41998,16.81,74106.3,3.01,-19.91,-22.17,0,*74
1508349943.99,41999,16.81,74094.0,3.01,-19.71,-21.93,0,*74
1508349945.24,42000,16.81,74084.8,2.97,-19.41,-21.63,0,*7C
1508349946.47,42001,16.81,74076.5,3.01,-19.61,-21.63,0,*71
1508349947.71,42002,16.81,74062.8,2.97,-19.71,-21.93,0,*72
1508349948.99,42003,16.81,74074.8,2.97,-19.61,-21.87,0,*77
1508349950.25,42004,16.81,74078.5,2.97,-19.71,-21.87,0,*71
1508349951.48,42005,16.81,74084.0,2.97,-19.75,-21.93,0,*71
1508349952.71,42006,16.81,74084.3,2.97,-19.75,-22.03,0,*78
1508349953.93,42007,16.81,74086.3,2.97,-19.91,-22.07,0,*77
1508349955.19,42008,16.81,74086.3,2.97,-19.91,-22.17,0,*79
1508349956.47,42009,16.81,74090.0,2.97,-19.85,-22.17,0,*7D
1508349957.67,42010,16.81,74090.0,2.95,-19.95,-22.11,0,*70
1508349958.89,42011,16.81,74088.3,2.95,-19.75,-21.97,0,*72
1508349960.14,42012,16.81,74090.0,2.95,-19.65,-21.97,0,*70
1508349961.36,42013,16.81,74090.3,2.95,-19.65,-22.07,0,*7B
1508349962.59,42014,16.81,74090.8,2.95,-19.65,-21.93,0,*72
1508349963.79,42015,16.81,74074.5,2.95,-19.37,-21.63,0,*7B
1508349964.99,42016,16.81,74080.5,2.95,-19.51,-21.77,0,*7D
1508349966.22,42017,16.81,74070.0,2.95,-19.61,-21.63,0,*7A
1508349967.47,42018,16.81,74074.3,2.93,-19.65,-21.93,0,*78
1508349968.73,42019,16.81,74064.0,2.97,-19.61,-21.93,0,*79
1508349969.96,42020,16.81,74072.0,2.97,-19.75,-21.93,0,*76
1508349971.19,42021,16.81,74078.5,2.97,-19.71,-22.03,0,*79
1508349972.42,42022,16.81,74074.0,3.01,-19.75,-22.17,0,*75
1508349973.62,42023,16.81,74066.3,3.01,-19.91,-22.27,0,*7D
1508349974.87,42024,16.81,74062.5,2.97,-19.99,-22.21,0,*7A
1508349976.12,42025,16.81,74068.5,2.97,-19.91,-22.21,0,*73
1508349977.35,42026,16.81,74076.5,2.97,-19.91,-22.07,0,*74
1508349978.58,42027,16.81,74070.0,2.97,-19.91,-22.07,0,*75
1508349979.8,42028,16.81,74056.5,2.97,-19.75,-21.77,0,*74
1508349981.06,42029,16.81,74066.8,2.97,-19.71,-21.87,0,*7E
1508349982.29,42030,16.81,74060.3,2.97,-19.47,-21.73,0,*78
1508349983.54,42031,16.81,74056.3,2.97,-19.57,-21.63,0,*79
1508349984.83,42032,16.81,74062.3,2.97,-19.57,-21.87,0,*70
1508349986.09,42033,16.81,74064.8,2.97,-19.57,-21.73,0,*7A
1508349987.35,42034,16.81,74064.3,2.97,-19.71,-21.87,0,*72
1508349988.6,42035,16.81,74068.8,3.05,-19.65,-21.97,0,*7D
1508349989.86,42036,16.81,74074.0,2.97,-19.91,-22.17,0,*74
1508349991.07,42037,16.81,74074.8,3.01,-20.05,-22.21,0,*79
1508349992.3,42038,16.81,74076.8,2.97,-20.05,-22.27,0,*7E
1508349993.52,42039,16.81,74074.3,2.97,-20.05,-22.27,0,*7F
1508349994.76,42040,16.81,74070.8,2.97,-20.15,-22.37,0,*71
1508349996.02,42041,16.81,74070.5,2.97,-19.99,-22.21,0,*79
1508349997.27,42042,16.81,74076.8,2.97,-19.91,-22.17,0,*77
1508349998.52,42043,16.81,74084.5,2.97,-19.99,-22.21,0,*7B
1508349999.75,42044,16.81,74096.0,2.97,-20.05,-22.27,0,*75
1508350001.0,42045,16.81,74072.3,2.97,-19.91,-22.17,0,*70
1508350002.22,42046,16.81,74068.5,2.95,-20.05,-22.21,0,*73
1508350003.47,42047,16.81,74070.0,2.97,-19.91,-22.17,0,*72
1508350004.74,42048,16.81,74074.0,2.97,-19.99,-22.17,0,*75
1508350005.96,42049,16.81,74072.8,2.97,-19.91,-22.07,0,*7D
1508350007.18,42050,16.81,74076.8,3.01,-19.85,-22.07,0,*7E
1508350008.44,42051,16.81,74078.0,2.97,-19.99,-22.17,0,*7D
1508350009.67,42052,16.81,74072.3,2.97,-19.99,-22.07,0,*7F
1508350010.9,42053,16.81,74074.5,3.01,-19.91,-22.17,0,*79
1508350012.15,42054,16.81,74070.3,2.97,-19.85,-21.93,0,*7A
1508350013.38,42055,16.81,74072.0,2.97,-19.91,-22.07,0,*70
1508350014.63,42056,16.81,74070.8,2.97,-19.85,-22.07,0,*76
1508350015.88,42057,16.81,74072.5,2.97,-19.85,-21.93,0,*79
1508350017.13,42058,16.81,74070.3,2.97,-19.85,-22.03,0,*7C
1508350018.33,42059,16.81,74074.5,3.01,-19.99,-22.03,0,*7E
1508350019.56,42060,16.81,74082.0,2.97,-19.99,-22.07,0,*7E
1508350020.75,42061,16.81,74078.8,3.01,-20.05,-22.27,0,*7C
1508350021.99,42062,16.81,74080.8,2.97,-20.15,-22.41,0,*70
1508350023.23,42063,16.81,74084.5,2.97,-20.35,-22.41,0,*73
1508350024.45,42064,16.81,74082.8,2.97,-20.29,-22.53,0,*7A
1508350025.67,42065,16.81,74074.5,2.97,-20.29,-22.41,0,*78
1508350026.88,42066,16.81,74072.8,2.97,-20.29,-22.37,0,*7A
1508350028.1,42067,16.81,74078.0,3.01,-20.15,-22.27,0,*7B
1508350029.35,42068,16.81,74078.0,2.97,-20.15,-22.27,0,*7A
1508350030.62,42069,16.81,74076.5,2.97,-20.15,-22.21,0,*7D
1508350031.87,42070,16.81,74076.0,2.97,-20.15,-22.27,0,*73
1508350033.09,42071,16.81,74080.3,3.01,-20.15,-22.27,0,*7C
1508350034.34,42072,16.81,74082.0,2.97,-20.19,-22.27,0,*7D
1508350035.53,42073,16.81,74082.3,3.01,-20.29,-22.37,0,*70
1508350036.77,42074,16.81,74078.8,2.97,-20.15,-22.37,0,*76
1508350037.96,42075,16.81,74078.8,3.01,-20.29,-22.27,0,*77
1508350039.18,42076,16.81,74078.5,3.01,-20.19,-22.27,0,*77
1508350040.4,42077,16.81,74078.5,3.01,-20.19,-22.27,0,*76
1508350041.65,42078,16.81,74082.3,2.97,-20.19,-22.37,0,*76
1508350042.86,42079,16.81,74080.8,3.01,-20.35,-22.41,0,*76
1508350044.06,42080,16.81,74080.5,3.01,-20.39,-22.37,0,*7D
1508350045.28,42081,16.81,74080.8,3.01,-20.49,-22.37,0,*7B
1508350046.53,42082,16.81,74078.5,2.97,-20.35,-22.37,0,*7D
1508350047.74,42083,16.81,74082.0,3.01,-20.35,-22.41,0,*73
1508350048.96,42084,16.81,74084.8,3.01,-20.49,-22.41,0,*7F
1508350050.16,42085,16.81,74086.3,3.01,-20.39,-22.37,0,*78
1508350051.4,42086,16.81,74082.3,2.97,-20.49,-22.41,0,*73
1508350052.63,42087,16.75,74078.5,2.97,-20.39,-22.37,0,*74
1508350053.85,42088,16.81,74080.3,3.01,-20.49,-22.41,0,*73
1508350055.07,42089,16.81,74080.8,3.01,-20.49,-22.41,0,*72
1508350056.29,42090,16.81,74086.0,3.01,-20.49,-22.37,0,*7B
1508350057.54,42091,16.81,74086.5,2.97,-20.49,-22.37,0,*74
1508350058.78,42092,16.81,74086.8,2.97,-20.35,-22.37,0,*7C
1508350060.03,42093,16.81,74088.8,2.97,-20.49,-22.41,0,*77
1508350061.28,42094,16.81,74082.8,2.97,-20.53,-22.41,0,*7B
1508350062.51,42095,16.81,74080.8,2.97,-20.39,-22.27,0,*76
1508350063.73,42096,16.81,74082.0,3.01,-20.35,-22.27,0,*77
1508350064.97,42097,16.81,74082.8,3.01,-20.35,-22.21,0,*70
1508350066.22,42098,16.81,74084.0,2.97,-20.39,-22.21,0,*7D
1508350067.44,42099,16.81,74084.8,3.01,-20.39,-22.21,0,*72
1508350068.67,42100,16.81,74082.5,3.01,-20.49,-22.37,0,*73
1508350069.89,42101,16.81,74088.3,3.01,-20.49,-22.27,0,*73
1508350071.11,42102,16.81,74086.5,3.01,-20.49,-22.37,0,*71
1508350072.31,42103,16.81,74086.5,3.01,-20.63,-22.37,0,*78
1508350073.56,42104,16.81,74084.8,2.97,-20.53,-22.37,0,*72
1508350074.75,42105,16.81,74090.0,3.01,-20.69,-22.41,0,*75
1508350075.95,42106,16.81,74092.5,3.01,-20.69,-22.37,0,*77
1508350077.15,42107,16.81,74090.0,3.01,-20.69,-22.37,0,*76
1508350078.35,42108,16.81,74086.8,3.01,-20.63,-22.53,0,*71
1508350079.55,42109,16.81,74090.3,3.01,-20.69,-22.53,0,*7A
1508350080.74,42110,16.81,74090.0,3.01,-20.69,-22.41,0,*71
1508350081.94,42111,16.81,74090.3,3.01,-20.69,-22.53,0,*73
1508350083.14,42112,16.81,74090.5,3.01,-20.69,-22.37,0,*72
1508350084.36,42113,16.81,74092.3,3.01,-20.79,-22.53,0,*70
1508350085.59,42114,16.81,74088.5,3.01,-20.83,-22.57,0,*76
1508350086.81,42115,16.81,74090.8,3.01,-20.83,-22.67,0,*74
1508350088.01,42116,16.81,74084.8,3.01,-20.69,-22.41,0,*77
1508350089.21,42117,16.81,74086.3,3.05,-20.69,-22.27,0,*72
1508350090.45,42118,16.81,74086.5,3.05,-20.59,-22.31,0,*79
1508350091.64,42119,16.81,74090.8,3.05,-20.73,-22.41,0,*77
1508350092.86,42120,16.81,74096.0,3.01,-20.83,-22.41,0,*76
1508350094.06,42121,16.81,74098.8,3.01,-20.93,-22.57,0,*71
1508350095.26,42122,16.81,74096.0,3.01,-20.93,-22.67,0,*71
1508350096.46,42123,16.81,74094.0,3.01,-20.93,-22.57,0,*73
1508350097.71,42124,16.81,74088.5,2.97,-20.99,-22.57,0,*70
1508350098.91,42125,16.81,74094.3,3.01,-21.09,-22.57,0,*77
1508350100.11,42126,16.81,74092.5,3.01,-21.09,-22.67,0,*77